Time,TemperatureF,DewpointF,PressureIn,WindDirection,WindDirectionDegrees,WindSpeedMPH,WindSpeedGustMPH,Humidity,HourlyPrecipIn,Conditions,Clouds,dailyrainin,SoftwareType,DateUTC
2013-09-15 00:01:00,69.3,57.0,29.88,SSW,194,3.0,12.0,65,0.00,,,0.00,weatherlink.com 1.10,2013-09-15 05:01:00,
2013-09-15 00:16:00,69.5,57.0,29.88,SSW,195,7.0,12.0,64,0.00,,,0.00,weatherlink.com 1.10,2013-09-15 05:16:00,
2013-09-15 00:31:00,69.3,57.0,29.88,SW,218,1.0,13.0,65,0.00,,,0.00,weatherlink.com 1.10,2013-09-15 05:31:00,
2013-09-15 00:46:00,69.0,57.0,29.87,SW,232,6.0,11.0,66,0.00,,,0.00,weatherlink.com 1.10,2013-09-15 05:46:00,
2013-09-15 01:01:00,69.1,57.0,29.87,SW,236,6.0,13.0,66,0.00,,,0.00,weatherlink.com 1.10,2013-09-15 06:01:00,
2013-09-15 01:16:00,69.2,57.0,29.87,SSW,211,8.0,13.0,66,0.00,,,0.00,weatherlink.com 1.10,2013-09-15 06:16:00,
2013-09-15 01:31:00,69.2,57.0,29.87,SW,223,8.0,13.0,66,0.00,,,0.00,weatherlink.com 1.10,2013-09-15 06:31:00,
2013-09-15 01:46:00,69.0,58.0,29.88,SW,215,10.0,16.0,67,0.00,,,0.00,weatherlink.com 1.10,2013-09-15 06:46:00,
2013-09-15 02:01:00,68.7,57.0,29.88,SSW,207,6.0,13.0,67,0.00,,,0.00,weatherlink.com 1.10,2013-09-15 07:01:00,
2013-09-15 02:17:00,68.3,57.0,29.87,SSW,207,6.0,9.0,68,0.00,,,0.00,weatherlink.com 1.10,2013-09-15 07:17:00,
2013-09-15 06:54:00,-999.0,-99.9,0.00,North,-999,-999.0,-999.0,-999,0.00,,,0.01,weatherlink.com 1.10,2013-09-15 11:54:00,
2013-09-15 07:09:00,-999.0,-99.9,29.91,North,-999,-999.0,-999.0,-999,0.00,,,0.01,weatherlink.com 1.10,2013-09-15 12:09:00,
2013-09-15 07:24:00,-999.0,-99.9,29.91,North,-999,-999.0,-999.0,-999,0.00,,,0.01,weatherlink.com 1.10,2013-09-15 12:24:00,
2013-09-15 07:40:00,63.9,61.0,29.93,NW,323,6.0,17.0,89,0.00,,,0.01,weatherlink.com 1.10,2013-09-15 12:40:00,
2013-09-15 07:55:00,63.6,60.0,29.92,NNW,339,10.0,20.0,89,0.00,,,0.01,weatherlink.com 1.10,2013-09-15 12:55:00,
2013-09-15 08:10:00,63.7,61.0,29.93,NW,323,6.0,17.0,89,0.01,,,0.02,weatherlink.com 1.10,2013-09-15 13:10:00,
2013-09-15 08:25:00,63.8,61.0,29.93,NNW,346,8.0,19.0,89,0.01,,,0.02,weatherlink.com 1.10,2013-09-15 13:25:00,
2013-09-15 08:40:00,63.8,60.0,29.93,North,5,3.0,10.0,88,0.01,,,0.02,weatherlink.com 1.10,2013-09-15 13:40:00,
2013-09-15 08:55:00,63.7,60.0,29.93,NE,37,4.0,13.0,88,0.01,,,0.02,weatherlink.com 1.10,2013-09-15 13:55:00,
2013-09-15 09:10:00,63.7,60.0,29.95,NNW,331,4.0,16.0,88,0.00,,,0.02,weatherlink.com 1.10,2013-09-15 14:10:00,
2013-09-15 09:25:00,64.1,61.0,29.97,NNW,340,4.0,7.0,88,0.00,,,0.02,weatherlink.com 1.10,2013-09-15 14:25:00,
2013-09-15 09:40:00,64.2,61.0,29.98,NW,318,6.0,10.0,88,0.00,,,0.02,weatherlink.com 1.10,2013-09-15 14:40:00,
2013-09-15 09:55:00,64.4,61.0,29.99,NNW,328,4.0,18.0,87,0.00,,,0.02,weatherlink.com 1.10,2013-09-15 14:55:00,
2013-09-15 10:10:00,64.5,60.0,30.00,North,355,1.0,14.0,86,0.00,,,0.02,weatherlink.com 1.10,2013-09-15 15:10:00,
2013-09-15 10:25:00,64.3,60.0,30.01,NE,51,6.0,11.0,85,0.00,,,0.02,weatherlink.com 1.10,2013-09-15 15:25:00,
2013-09-15 10:40:00,64.1,60.0,30.02,NE,53,8.0,16.0,85,0.00,,,0.02,weatherlink.com 1.10,2013-09-15 15:40:00,
2013-09-15 10:55:00,64.1,60.0,30.02,NE,50,3.0,16.0,85,0.00,,,0.02,weatherlink.com 1.10,2013-09-15 15:55:00,
2013-09-15 11:10:00,63.9,59.0,30.03,ENE,57,10.0,14.0,85,0.00,,,0.02,weatherlink.com 1.10,2013-09-15 16:10:00,
2013-09-15 11:25:00,63.8,59.0,30.03,ENE,67,5.0,16.0,84,0.00,,,0.02,weatherlink.com 1.10,2013-09-15 16:25:00,
2013-09-15 11:40:00,63.8,59.0,30.04,NE,49,7.0,21.0,84,0.00,,,0.02,weatherlink.com 1.10,2013-09-15 16:40:00,
2013-09-15 11:55:00,63.9,59.0,30.04,ENE,62,11.0,19.0,84,0.00,,,0.02,weatherlink.com 1.10,2013-09-15 16:55:00,
2013-09-15 12:10:00,65.7,60.0,30.05,ENE,63,10.0,15.0,82,0.00,,,0.02,weatherlink.com 1.10,2013-09-15 17:10:00,
2013-09-15 12:25:00,65.9,59.0,30.05,NE,40,13.0,18.0,79,0.00,,,0.02,weatherlink.com 1.10,2013-09-15 17:25:00,
2013-09-15 12:40:00,65.6,59.0,30.06,ENE,69,7.0,14.0,80,0.00,,,0.02,weatherlink.com 1.10,2013-09-15 17:40:00,
2013-09-15 12:55:00,65.4,59.0,30.07,ENE,62,10.0,12.0,80,0.00,,,0.02,weatherlink.com 1.10,2013-09-15 17:55:00,
2013-09-15 13:10:00,65.4,59.0,30.07,NE,49,4.0,16.0,80,0.00,,,0.02,weatherlink.com 1.10,2013-09-15 18:10:00,
2013-09-15 13:25:00,65.6,59.0,30.07,ENE,59,8.0,15.0,78,0.00,,,0.02,weatherlink.com 1.10,2013-09-15 18:25:00,
2013-09-15 13:40:00,65.7,58.0,30.08,North,355,6.0,21.0,77,0.00,,,0.02,weatherlink.com 1.10,2013-09-15 18:40:00,
2013-09-15 13:55:00,65.7,58.0,30.09,NE,52,8.0,14.0,77,0.00,,,0.02,weatherlink.com 1.10,2013-09-15 18:55:00,
2013-09-15 14:10:00,65.6,58.0,30.09,NE,36,6.0,19.0,76,0.00,,,0.02,weatherlink.com 1.10,2013-09-15 19:10:00,
2013-09-15 14:25:00,65.3,57.0,30.10,NNE,30,12.0,17.0,75,0.00,,,0.02,weatherlink.com 1.10,2013-09-15 19:25:00,
2013-09-15 14:40:00,65.7,58.0,30.10,ENE,58,3.0,15.0,76,0.00,,,0.02,weatherlink.com 1.10,2013-09-15 19:40:00,
2013-09-15 14:55:00,65.7,57.0,30.11,ENE,61,10.0,14.0,74,0.00,,,0.02,weatherlink.com 1.10,2013-09-15 19:55:00,
2013-09-15 15:10:00,65.5,57.0,30.11,NE,49,5.0,18.0,74,0.00,,,0.02,weatherlink.com 1.10,2013-09-15 20:10:00,
2013-09-15 15:25:00,66.0,57.0,30.12,NE,54,11.0,16.0,73,0.00,,,0.02,weatherlink.com 1.10,2013-09-15 20:25:00,
2013-09-15 15:40:00,65.9,57.0,30.12,ENE,61,11.0,14.0,73,0.00,,,0.02,weatherlink.com 1.10,2013-09-15 20:40:00,
2013-09-15 15:56:00,66.7,57.0,30.11,East,80,13.0,24.0,72,0.00,,,0.02,weatherlink.com 1.10,2013-09-15 20:56:00,
2013-09-15 16:11:00,66.1,57.0,30.12,ENE,71,11.0,23.0,72,0.00,,,0.02,weatherlink.com 1.10,2013-09-15 21:11:00,
2013-09-15 16:26:00,66.5,57.0,30.12,ENE,70,0.0,19.0,72,0.00,,,0.02,weatherlink.com 1.10,2013-09-15 21:26:00,
2013-09-15 16:41:00,66.3,57.0,30.12,ENE,57,12.0,16.0,71,0.00,,,0.02,weatherlink.com 1.10,2013-09-15 21:41:00,
2013-09-15 16:56:00,66.0,56.0,30.12,NE,50,10.0,19.0,71,0.00,,,0.02,weatherlink.com 1.10,2013-09-15 21:56:00,
2013-09-15 17:11:00,67.2,56.0,30.12,NE,54,8.0,18.0,68,0.00,,,0.02,weatherlink.com 1.10,2013-09-15 22:11:00,
2013-09-15 17:25:00,66.3,56.0,30.13,ENE,72,12.0,24.0,70,0.00,,,0.02,weatherlink.com 1.10,2013-09-15 22:25:00,
2013-09-15 17:40:00,65.6,56.0,30.14,ENE,58,10.0,23.0,71,0.00,,,0.02,weatherlink.com 1.10,2013-09-15 22:40:00,
2013-09-15 17:55:00,65.4,56.0,30.14,ENE,61,11.0,15.0,71,0.00,,,0.02,weatherlink.com 1.10,2013-09-15 22:55:00,
2013-09-15 18:11:00,65.2,56.0,30.15,ENE,71,9.0,17.0,71,0.00,,,0.02,weatherlink.com 1.10,2013-09-15 23:11:00,
2013-09-15 18:26:00,65.0,56.0,30.15,East,84,3.0,13.0,72,0.00,,,0.02,weatherlink.com 1.10,2013-09-15 23:26:00,
2013-09-15 18:41:00,64.5,55.0,30.16,NE,49,13.0,16.0,71,0.00,,,0.02,weatherlink.com 1.10,2013-09-15 23:41:00,
2013-09-15 18:56:00,64.2,55.0,30.17,ENE,74,8.0,23.0,73,0.00,,,0.02,weatherlink.com 1.10,2013-09-15 23:56:00,
2013-09-15 19:11:00,63.9,55.0,30.18,ENE,74,10.0,12.0,73,0.00,,,0.02,weatherlink.com 1.10,2013-09-16 00:11:00,
2013-09-15 19:26:00,63.6,55.0,30.18,ENE,60,4.0,13.0,73,0.00,,,0.02,weatherlink.com 1.10,2013-09-16 00:26:00,
2013-09-15 19:41:00,63.3,55.0,30.19,East,85,5.0,10.0,74,0.00,,,0.02,weatherlink.com 1.10,2013-09-16 00:41:00,
2013-09-15 19:56:00,62.9,55.0,30.19,East,94,3.0,9.0,75,0.00,,,0.02,weatherlink.com 1.10,2013-09-16 00:56:00,
2013-09-15 20:11:00,62.6,55.0,30.20,ENE,73,2.0,8.0,76,0.00,,,0.02,weatherlink.com 1.10,2013-09-16 01:11:00,
2013-09-15 20:26:00,62.5,55.0,30.21,East,82,1.0,8.0,76,0.00,,,0.02,weatherlink.com 1.10,2013-09-16 01:26:00,
2013-09-15 20:41:00,62.3,55.0,30.21,ENE,70,3.0,7.0,77,0.00,,,0.02,weatherlink.com 1.10,2013-09-16 01:41:00,
2013-09-15 20:56:00,62.2,55.0,30.22,ENE,67,4.0,11.0,78,0.00,,,0.02,weatherlink.com 1.10,2013-09-16 01:56:00,
2013-09-15 21:11:00,62.0,55.0,30.23,ENE,68,1.0,5.0,78,0.00,,,0.02,weatherlink.com 1.10,2013-09-16 02:11:00,
2013-09-15 21:26:00,61.9,55.0,30.23,ENE,65,9.0,9.0,79,0.00,,,0.02,weatherlink.com 1.10,2013-09-16 02:26:00,
2013-09-15 21:42:00,61.8,55.0,30.24,ENE,59,4.0,5.0,79,0.00,,,0.02,weatherlink.com 1.10,2013-09-16 02:42:00,
2013-09-15 21:57:00,61.8,55.0,30.24,NE,54,4.0,5.0,79,0.00,,,0.02,weatherlink.com 1.10,2013-09-16 02:57:00,
2013-09-15 22:12:00,61.7,55.0,30.23,ENE,67,5.0,9.0,79,0.00,,,0.02,weatherlink.com 1.10,2013-09-16 03:12:00,
2013-09-15 22:27:00,61.6,55.0,30.24,East,93,5.0,14.0,79,0.00,,,0.02,weatherlink.com 1.10,2013-09-16 03:27:00,
2013-09-15 22:42:00,61.5,55.0,30.24,ENE,73,3.0,9.0,79,0.00,,,0.02,weatherlink.com 1.10,2013-09-16 03:42:00,
2013-09-15 22:57:00,61.5,55.0,30.24,East,86,7.0,10.0,79,0.00,,,0.02,weatherlink.com 1.10,2013-09-16 03:57:00,
2013-09-15 23:12:00,61.5,55.0,30.25,ENE,72,5.0,10.0,79,0.00,,,0.02,weatherlink.com 1.10,2013-09-16 04:12:00,
2013-09-15 23:27:00,61.5,55.0,30.25,East,84,2.0,10.0,79,0.00,,,0.02,weatherlink.com 1.10,2013-09-16 04:27:00,
2013-09-15 23:42:00,61.4,55.0,30.26,East,95,5.0,8.0,79,0.00,,,0.02,weatherlink.com 1.10,2013-09-16 04:42:00,
2013-09-15 23:57:00,61.4,55.0,30.26,East,92,3.0,11.0,79,0.00,,,0.02,weatherlink.com 1.10,2013-09-16 04:57:00,